This is the latest recevied weather packets stored in our database for station/object KC5TIL-3. If no packets are shown the sender has not sent any weather packets the latest 10 day(s).
| Time | Temp. | Humidity | Pressure | Rain* | Wind** | Luminosity | Snow |
|---|---|---|---|---|---|---|---|
| 1787697330 | 37.78° C | 10% | 1009.8 hPa | 0 mm | 3.13 m/s, 227° | - | - |
| 1787697032 | 37.78° C | 10% | 1009.8 hPa | 0 mm | 3.13 m/s, 119° | - | - |
| 1787696725 | 37.78° C | 10% | 1009.8 hPa | 0 mm | 3.13 m/s, 167° | - | - |
| 1787696427 | 37.22° C | 10% | 1009.8 hPa | 0 mm | 3.58 m/s, 148° | - | - |
| 1787696129 | 37.78° C | 10% | 1009.8 hPa | 0 mm | 2.68 m/s, 214° | - | - |
| 1787695828 | 37.22° C | 10% | 1009.8 hPa | 0 mm | 3.13 m/s, 134° | - | - |
| 1787695529 | 37.22° C | 10% | 1009.8 hPa | 0 mm | 4.02 m/s, 157° | - | - |
| 1787695231 | 37.78° C | 10% | 1010.8 hPa | 0 mm | 3.13 m/s, 191° | - | - |
| 1787694930 | 37.78° C | 10% | 1010.8 hPa | 0 mm | 3.13 m/s, 138° | - | - |
| 1787694632 | 37.78° C | 10% | 1010.8 hPa | 0 mm | 3.13 m/s, 138° | - | - |
| 1787694333 | 37.78° C | 10% | 1010.8 hPa | 0 mm | 3.58 m/s, 195° | - | - |
| 1787694032 | 37.78° C | 10% | 1010.8 hPa | 0 mm | 3.13 m/s, 180° | - | - |
| 1787693734 | 37.78° C | 10% | 1010.8 hPa | 0 mm | 2.24 m/s, 140° | - | - |
| 1787693436 | 38.33° C | 10% | 1010.8 hPa | 0 mm | 2.24 m/s, 216° | - | - |
| 1787693134 | 37.78° C | 10% | 1010.8 hPa | 0 mm | 2.68 m/s, 160° | - | - |
| 1787692836 | 37.22° C | 10% | 1010.8 hPa | 0 mm | 3.13 m/s, 138° | - | - |
| 1787692538 | 37.78° C | 10% | 1010.8 hPa | 0 mm | 3.58 m/s, 189° | - | - |
| 1787692237 | 37.78° C | 10% | 1010.8 hPa | 0 mm | 2.24 m/s, 225° | - | - |
| 1787691938 | 37.22° C | 10% | 1010.8 hPa | 0 mm | 3.58 m/s, 150° | - | - |
| 1787691635 | 37.78° C | 10% | 1010.8 hPa | 0 mm | 3.13 m/s, 91° | - | - |
| 1787691325 | 37.22° C | 10% | 1010.8 hPa | 0 mm | 3.58 m/s, 199° | - | - |
| 1787691026 | 37.78° C | 10% | 1010.8 hPa | 0 mm | 2.24 m/s, 193° | - | - |
| 1787690728 | 37.22° C | 10% | 1011.8 hPa | 0 mm | 3.13 m/s, 202° | - | - |
| 1787690427 | 37.22° C | 10% | 1011.8 hPa | 0 mm | 2.68 m/s, 226° | - | - |
| 1787690129 | 36.67° C | 10% | 1011.8 hPa | 0 mm | 3.13 m/s, 158° | - | - |
* Rain latest hour (hover to see other rain measurements)
** Current wind speed in m/s (hover to see current wind gust speed)